World > North America > United States > Illinois > Arenzville  

Arenzville, IL Hourly Weather Updates

Feedback E-mail the Weather

Quick Clicks

Arenzville, IL Weather Maps

°F °C°F °C
Arenzville Weather Map
UTC Time: 4/13/2024, 19:19
Your Time:

Arenzville, IL Regional Weather

Expires:202404132000;;685462
ASUS43 KLOT 131910
RWRIL 

ILLINOIS REGIONAL WEATHER ROUNDUP
NATIONAL WEATHER SERVICE CHICAGO/ROMEOVILLE IL
200 PM CDT SAT APR 13 2024

NOTE: "FAIR" INDICATES FEW OR NO CLOUDS BELOW 12,000 FEET WITH NO
SIGNIFICANT WEATHER AND/OR OBSTRUCTIONS TO VISIBILITY.

* THESE STATIONS ARE NOT UNDER NWS QUALITY CONTROL. THEY ALSO MAY NOT
  REPORT WEATHER SUCH AS PRECIPITATION OR FOG.


ILZ025>027-034>036-040-047-049-050-058-095>099-132000-
WEST-CENTRAL ILLINOIS
  
CITY           SKY/WX    TMP DP  RH WIND       PRES   REMARKS
QUINCY         SUNNY     77  44  30 S14G22    29.99F TC  25           
GALESBURG*     SUNNY     74  42  31 S10G16    30.01F TC  23           
MACOMB*        SUNNY     77  29  17 S15G21    30.03F TC  25           
JACKSONVILLE*  SUNNY     74  38  27 S13       30.04F TC  23           
PITTSFIELD*    SUNNY     76  42  29 S12       30.03F TC  25           
$$


SKY/WX - Weather  TMP - Temperature  DP - Dew Point  RH - Humidity
WIND - Wind Direction/Speed PRES - Barometric Pressure VSB - Visibility
WCI - Wind Chill Index E13G22 Wind - East Wind 13 mph/Gusts of 22 mph

Trending Headlines

Trending Entertainment Headlines

Arenzville Radar Loop

Use the map search tool if you want to place a location marker on the radar map...

Arenzville Quick Facts

National Two Day Weather Forecast


E-mail the Arenzville Weather Forecast

Voice your opinion or tell us about page issues...